Regional Weather Roundup
Issued by NWS

Home | Current Version | Previous Version | Text Only | Print | Product List | Glossary Off
Versions: 1 2 3 4 5 6 7 8 9 10 11 12 13 14 15 16 17 18 19 20 21 22 23 24 25 26 27 28 29 30 31 32 33 34 35 36 37 38 39 40 41 42 43 44 45 46 47 48 49 50

000
ASUS43 KFSD 270502
RWRSD

WEATHER ROUNDUP FOR SOUTH DAKOTA
NATIONAL WEATHER SERVICE SIOUX FALLS SD
1200 AM CDT WED MAY 27 2015

NOTE: "FAIR" INDICATES FEW OR NO CLOUDS BELOW 12,000 FEET WITH NO
SIGNIFICANT WEATHER AND/OR OBSTRUCTIONS TO VISIBILITY.


SDZ001>005-009-010-012>017-270600-
NORTHWEST AND NORTH CENTRAL SOUTH DAKOTA

CITY           SKY/WX    TMP DP  RH WIND       PRES   REMARKS
FAITH            N/A     58  45  62 SW6       29.97S
MOBRIDGE       CLEAR     61  53  75 SE5       29.90S
$$

SDZ012>016-024>037-041>051-057-063-072>074-270600-
SOUTHWEST AND SOUTH CENTRAL SOUTH DAKOTA

CITY           SKY/WX    TMP DP  RH WIND       PRES   REMARKS
RAPID CTY ARPT PTCLDY    53  49  86 CALM      29.99S
PIERRE         PTCLDY    54  48  80 SE3       29.94R
CUSTER         CLOUDY    47  45  93 CALM      30.08S
ELLSWORTH AFB  PTCLDY    56  49  78 SW6       29.99S
PHILIP         PTCLDY    55  49  80 CALM      29.97S
PINE RIDGE     CLOUDY    53  47  79 CALM      30.02R
WINNER         FAIR      64  49  57 SW6       29.97S
$$

SDZ004>011-016>023-039-040-270600-
NORTHEAST SOUTH DAKOTA

CITY           SKY/WX    TMP DP  RH WIND       PRES   REMARKS
ABERDEEN       PTCLDY    55  52  89 S5        29.88S
WATERTOWN      MOCLDY    61  50  67 NW5       29.87R
BROOKINGS      MOCLDY    59  52  77 W5        29.89F
$$

SDZ017-020-022-023-036>040-048>070-270600-
SOUTHEAST SOUTH DAKOTA

CITY           SKY/WX    TMP DP  RH WIND       PRES   REMARKS
SIOUX FALLS    CLOUDY    58  51  78 CALM      29.90R
HURON          PTCLDY    57  49  74 SW3       29.90R
CHAMBERLAIN    MOCLDY    59  50  71 SW6       29.94F
MITCHELL       PTCLDY    60  51  72 NW6       29.91R
YANKTON        PTCLDY    61  52  72 SW3       29.91R
$$

ABBREVIATIONS USED IN REMARKS
   TC - TEMPERATURE IN CELSIUS
  WCI - WIND CHILL INDEX
   HX - HEAT INDEX
  VSB - VISIBILITY



USA.gov is the U.S. government's official web portal to all federal, state and local government web resources and services.